Retour au catalogue

STARLINK-4576

ActifCommunicationsVLEO
NORAD 53566·PAYLOAD·🇺🇸 United States

Lancé Aug 19, 2022 depuis Cape Canaveral Space Force Station

Loading…

Prochains Passages (prochaines 24 heures)

TLE

FraisSource: CelesTrak SupGP

Époque: Sep 14, 2026, 21:13 UTC

1 53566C 22101AR  26257.88451389  .00041835  00000+0  12361-2 0  2571
2 53566  53.1568 269.9583 0001140  92.9177 126.8281 15.34367919    15

Suivez STARLINK-4576 en temps réel avec AllMySat

Download on the App Store